Other Surface Observations
Issued by NWS Tucson, AZ

Home | Current Version | Previous Version | Text Only | Print | Product List | Glossary On
Versions: 1 2 3 4 5 6 7 8 9 10 11 12 13 14 15 16 17 18 19 20 21 22 23 24 25 26 27 28 29 30 31 32 33 34 35 36 37 38 39 40 41 42 43 44 45 46 47 48 49 50
578
SXUS55 KTWC 191815
OSOTWC

WEATHER ROUNDUP FOR SOUTHEAST ARIZONA
NATIONAL WEATHER SERVICE TUCSON AZ
1115 AM MST SUN NOV 19 2017

AZZ504>506-514-191915-
LOCATION       SKY/WX    TMP DP  RH WIND       PRES   REMARKS
TUCSON         SUNNY     73  23  15 E16G25    30.09F
DAVIS-MONTHAN  SUNNY     73  24  16 SE20      30.07F
CHILDRENS PARK N/A      N/A N/A  22 N1                PIMA CO DEQ
ALVERNON/22ND  N/A       68 N/A N/A SE7               PIMA CO DEQ
CHERRY/GLENN   N/A       70 N/A N/A SE5               PIMA CO DEQ
TANGERINE      N/A       68 N/A N/A SW2               PIMA CO DEQ
CONTL RANCH    N/A       66  24  20 E4                PIMA CO DEQ
GRANT/1ST      N/A       67  25  20 SE6               PIMA CO DEQ
CRAYCROFT/22ND N/A       69  24  18 E7                PIMA CO DEQ
GOLFLINKS/KOLB N/A       68  23  18 E7                PIMA CO DEQ
AJO/12TH       N/A       67  26  21 SE8               PIMA CO DEQ
FAIRGROUNDS    N/A       65 N/A N/A SE22              PIMA CO DEQ
SAGUARO        N/A       75  23  14 SE9G15            *SABINO CYN
SAN CARLOS     N/A       66  21  18 CALM              *SAN CARLOS
GREEN VALLEY   N/A       63  31  30 SE2               PIMA CO DEQ
HORSE CAMP CYN N/A       58  21  24 SE17G28           *ARAVAIPA CYN
RINCON MTNS    N/A       50  23  35 E7G13             *NR MANNING CAMP
$$

AZZ509>511-191915-
LOCATION       SKY/WX    TMP DP  RH WIND       PRES   REMARKS
SAFFORD        SUNNY     61  18  18 SE10      30.21F
STRAY HORSE    N/A       51  16  24 SE3               *
TRAIL CABIN    N/A       50  12  21 NE6G11            *N OF GRANVILLE
BLACK HILLS    NOT AVBL
DRY LAKE       N/A       51  12  21 SE7G12            *NATANES MTNS
NOON CREEK     N/A       57  19  22 S7G15             *PINALENO MTNS
COLUMBINE      N/A       50  16  26 S3G10             *PINALENO MTNS
GUTHRIE        N/A       47  11  23 E7G13             *SW OF GUTHRIE
$$

AZZ502-503-513-191915-
LOCATION       SKY/WX    TMP DP  RH WIND       PRES   REMARKS
NOGALES        SUNNY     71  26  18 N10       30.11F
SELLS          N/A       67  23  19 NE2               *
SASABE         N/A       71  29  21 NE3               *ALTAR VLY
HOPKINS        N/A       62  27  26 SE10G16           *SANTA RITA MTNS
CARR CYN       N/A       62  25  24 E4G10             *W OF HEREFORD
$$

AZZ507-508-512-191915-
LOCATION       SKY/WX    TMP DP  RH WIND       PRES   REMARKS
SIERRA VISTA   SUNNY     62  21  21 E7        30.19F
DOUGLAS        SUNNY     64  23  21 E12       30.17F
EMPIRE MTNS    NOT AVBL
MULESHOE RANCH N/A       58  19  22 E12G24            *PRESERVE
HEADQUARTERS   N/A       56  22  26 NE11G22           *CHIRICAHUA MTNS
$$

.............................NOTES.............................
THIS IS AN AUTOMATED COLLECTIVE WITH MINIMAL QUALITY CONTROL.
PIMA CO DEQ SITES HAVE NONSTANDARD WIND SENSOR HEIGHTS.
PIMA CO DEQ SITES DO NOT REPORT WIND GUSTS.
* INDICATES WIND SENSORS LOCATED AT 20 FEET INSTEAD OF 33 FEET.
..............................KEY..............................
SKY/WX - SKY CONDITION/WEATHER
TMP    - TEMPERATURE IN FAHRENHEIT
DP     - DEWPOINT IN FAHRENHEIT
RH     - RELATIVE HUMIDITY IN PERCENT
WIND   - DIRECTION AND SPEED IN MILES PER HOUR (MPH)
VRB    - VARIABLE WIND DIRECTION
PRES   - MEAN SEA LEVEL PRESSURE IN INCHES OF MERCURY
         F - FALLING PRESSURE   R - RISING PRESSURE
         S - STEADY PRESSURE
VSB    - VISIBILITY IN MILES
HX     - HEAT INDEX IN FAHRENHEIT
WCI    - WIND CHILL INDEX IN FAHRENHEIT
N/A    - NOT AVAILABLE
AFB    - AIR FORCE BASE
         DAVIS-MONTHAN IS DAVIS-MONTHAN AIR FORCE BASE
CYN    - CANYON
MTNS   - MOUNTAINS
NCA    - NATIONAL CONSERVATION AREA
NR     - NEAR
VLY    - VALLEY
CONTL  - CONTINENTAL
PIMA CO DEQ - PIMA COUNTY DEPT OF ENVIRONMENTAL QUALITY



USA.gov is the U.S. government's official web portal to all federal, state and local government web resources and services.